This is the latest recevied weather packets stored in our database for station/object KR4DFQ. If no packets are shown the sender has not sent any weather packets the latest 10 day(s).
| Time | Temp. | Humidity | Pressure | Rain* | Wind** | Luminosity | Snow |
|---|---|---|---|---|---|---|---|
| 1787402989 | 30.56° C | 70% | 1017.8 hPa | 0 mm | - | 256 W/m² | - |
| 1787402684 | 30.56° C | 69% | 1017.7 hPa | 0 mm | - | 239 W/m² | - |
| 1787402383 | 30.56° C | 70% | 1017.9 hPa | 0 mm | - | 221 W/m² | - |
| 1787402079 | 30° C | 71% | 1017.7 hPa | 0 mm | - | 217 W/m² | - |
| 1787401773 | 30° C | 70% | 1017.7 hPa | 0 mm | - | 198 W/m² | - |
| 1787401470 | 30° C | 73% | 1017.7 hPa | 0 mm | - | 178 W/m² | - |
| 1787401165 | 29.44° C | 75% | 1017.7 hPa | 0 mm | - | 167 W/m² | - |
| 1787400862 | 29.44° C | 75% | 1017.7 hPa | 0 mm | - | 150 W/m² | - |
| 1787400560 | 29.44° C | 76% | 1017.4 hPa | 0 mm | - | 130 W/m² | - |
| 1787400256 | 28.89° C | 76% | 1017.5 hPa | 0 mm | - | 116 W/m² | - |
| 1787399954 | 28.89° C | 78% | 1017.5 hPa | 0 mm | - | 100 W/m² | - |
| 1787399649 | 28.33° C | 80% | 1017.5 hPa | 0 mm | - | 86 W/m² | - |
| 1787399343 | 27.78° C | 83% | 1017.5 hPa | 0 mm | - | 72 W/m² | - |
| 1787399042 | 27.22° C | 85% | 1017.4 hPa | 0 mm | - | 56 W/m² | - |
| 1787398738 | 26.67° C | 88% | 1017.5 hPa | 0 mm | - | 52 W/m² | - |
| 1787398434 | 26.11° C | 88% | 1017.6 hPa | 0 mm | - | 30 W/m² | - |
| 1787398130 | 26.11° C | 89% | 1017.4 hPa | 0 mm | - | 26 W/m² | - |
| 1787397829 | 26.11° C | 89% | 1017.3 hPa | 0 mm | - | 22 W/m² | - |
| 1787397524 | 26.11° C | 89% | 1017.4 hPa | 0 mm | - | 18 W/m² | - |
| 1787397219 | 26.11° C | 89% | 1017.3 hPa | 0 mm | - | 15 W/m² | - |
| 1787396914 | 26.11° C | 88% | 1017.3 hPa | 0 mm | - | 11 W/m² | - |
| 1787396611 | 26.11° C | 87% | 1017.3 hPa | 0 mm | - | 7 W/m² | - |
| 1787396310 | 26.11° C | 87% | 1017.2 hPa | 0 mm | - | 4 W/m² | - |
| 1787396006 | 26.11° C | 87% | 1017.3 hPa | 0 mm | - | 2 W/m² | - |
| 1787395701 | 26.11° C | 88% | 1017.1 hPa | 0 mm | - | 1 W/m² | - |
* Rain latest hour (hover to see other rain measurements)
** Current wind speed in m/s (hover to see current wind gust speed)